Oxford, NC

4:21 PM EDT on July 21, 2017 (GMT -0400)
Henderson-Oxford

Weather History for KHNZ - March, 2013

Change the Weather History Date:

Tuesday, March 19, 2013

  Actual Average (KTDF) Record (KTDF)
Temperature  
Mean Temperature 51 °F -  
Max Temperature 65 °F 60 °F 77 °F (1977)
Min Temperature 37 °F 35 °F 12 °F (1967)
Degree Days  
Heating Degree Days 14    
Growing Degree Days 1 (Base 50)    
Moisture  
Dew Point 28 °F    
Average Humidity 56    
Maximum Humidity 97    
Minimum Humidity 12    
Precipitation  
Precipitation 0.00 in - - ()
Sea Level Pressure  
Sea Level Pressure 29.87 in    
Wind  
Wind Speed 5 mph (West)    
Max Wind Speed 16 mph    
Max Gust Speed 25 mph    
Visibility 8 miles    
Events      
Averages and records for this station are not official NWS values.
T = Trace of Precipitation, MM = Missing Value Source: NWS Daily Summary

Daily Weather History Graph

Daily Weather History Graph

Search for Another Location

Airport or City:

Trip Planner

Search our weather history database for the weather conditions in past years. The results will help you decide how hot, cold, wet, or windy it might be!

Date:

Astronomy

Mar. 19, 2013 Rise Set
Actual Time 7:18 AM EDT 7:25 PM EDT
Civil Twilight 6:53 AM EDT 7:50 PM EDT
Nautical Twilight 6:23 AM EDT 8:20 PM EDT
Astronomical Twilight 5:52 AM EDT 8:51 PM EDT
Moon 12:16 PM EDT (3/19) 2:01 AM EDT (3/19)
Length of Visible Light 12h 57m
Length of Day
12h 06m
Waxing Crescent, 49% of the Moon is Illuminated
Mar 19
Waxing Crescent
Mar 19
First Quarter
Mar 27
Full
Apr 3
Last Quarter
Apr 10
New

Hourly Weather History & Observations

Time (EDT) Temp. Windchill Dew Point Humidity Pressure Visibility Wind Dir Wind Speed Gust Speed Precip Events Conditions
12:15 AM 38.7 °F 34.3 °F 37.6 °F 96% 29.88 in 10.0 mi NW 5.8 mph - N/A   Overcast
12:35 AM 38.5 °F 33.4 °F 37.4 °F 96% 29.91 in 10.0 mi NW 6.9 mph - N/A   Overcast
1:15 AM 37.9 °F - 36.9 °F 96% 29.88 in 7.0 mi Calm Calm - N/A   Overcast
1:35 AM 37.8 °F 35.3 °F 36.7 °F 96% 29.87 in 5.0 mi NW 3.5 mph - N/A   Overcast
1:55 AM 37.9 °F 34.4 °F 36.9 °F 96% 29.87 in 7.0 mi NW 4.6 mph - N/A   Overcast
2:15 AM 37.8 °F - 36.9 °F 97% 29.87 in 4.0 mi Calm Calm - N/A   Overcast
2:35 AM 37.8 °F - 36.9 °F 97% 29.86 in 7.0 mi Calm Calm - N/A   Overcast
2:55 AM 37.8 °F - 36.9 °F 97% 29.84 in 7.0 mi Calm Calm - N/A   Overcast
3:15 AM 37.9 °F 35.5 °F 37.0 °F 97% 29.84 in 7.0 mi NW 3.5 mph - N/A   Overcast
3:35 AM 37.9 °F - 36.9 °F 96% 29.82 in 7.0 mi Calm Calm - N/A   Overcast
3:55 AM 37.9 °F - 36.9 °F 96% 29.82 in 7.0 mi Calm Calm - N/A   Overcast
4:15 AM 37.8 °F - 36.7 °F 96% 29.81 in 4.0 mi Calm Calm - N/A   Overcast
4:35 AM 37.8 °F 35.3 °F 36.7 °F 96% 29.81 in 3.0 mi NW 3.5 mph - N/A   Overcast
4:55 AM 37.8 °F - 36.7 °F 96% 29.81 in 2.5 mi Calm Calm - N/A   Overcast
5:15 AM 37.8 °F - 36.9 °F 97% 29.81 in 4.0 mi Calm Calm - N/A   Overcast
5:35 AM 37.9 °F - 37.0 °F 97% 29.81 in 2.5 mi Calm Calm - N/A   Overcast
5:55 AM 38.3 °F 34.8 °F 37.4 °F 97% 29.81 in 2.5 mi SSW 4.6 mph - N/A   Overcast
6:15 AM 38.5 °F 36.1 °F 37.6 °F 97% 29.81 in 3.0 mi SW 3.5 mph - N/A   Overcast
6:35 AM 38.8 °F 35.4 °F 37.9 °F 97% 29.81 in 1.2 mi SW 4.6 mph - N/A   Overcast
6:55 AM 38.8 °F 35.4 °F 37.9 °F 97% 29.81 in 1.2 mi WSW 4.6 mph - N/A   Overcast
7:15 AM 39.4 °F 34.5 °F 38.5 °F 97% 29.81 in 1.2 mi SW 6.9 mph - N/A   Overcast
7:55 AM 39.6 °F 35.4 °F 38.7 °F 97% 29.81 in 0.8 mi WSW 5.8 mph - N/A   Overcast
8:15 AM 39.9 °F 35.8 °F 39.0 °F 97% 29.82 in 2.5 mi SW 5.8 mph - N/A   Overcast
8:35 AM 40.3 °F 36.3 °F 39.4 °F 97% 29.84 in 5.0 mi West 5.8 mph - N/A   Overcast
8:55 AM 41.0 °F 36.4 °F 40.1 °F 97% 29.85 in 7.0 mi WSW 6.9 mph - N/A   Scattered Clouds
9:15 AM 41.7 °F 38.0 °F 40.6 °F 96% 29.86 in 10.0 mi WSW 5.8 mph - N/A   Clear
9:35 AM 42.6 °F 39.9 °F 40.5 °F 92% 29.87 in 10.0 mi West 4.6 mph - N/A   Clear
9:55 AM 44.4 °F 42.0 °F 41.5 °F 90% 29.88 in 10.0 mi West 4.6 mph - N/A   Clear
10:15 AM 46.2 °F 44.1 °F 41.7 °F 84% 29.88 in 10.0 mi West 4.6 mph - N/A   Clear
10:35 AM 47.8 °F - 41.5 °F 79% 29.88 in 10.0 mi WNW 6.9 mph - N/A   Clear
10:55 AM 50.0 °F - 42.4 °F 75% 29.89 in 10.0 mi West 6.9 mph - N/A   Clear
11:15 AM 52.0 °F - 42.1 °F 69% 29.89 in 10.0 mi WNW 5.8 mph - N/A   Clear
11:35 AM 54.0 °F - 39.0 °F 57% 29.88 in 10.0 mi West 12.7 mph 18.4 mph N/A   Clear
11:55 AM 55.2 °F - 34.2 °F 45% 29.88 in 10.0 mi West 13.8 mph 19.6 mph N/A   Clear
12:15 PM 56.3 °F - 32.0 °F 40% 29.87 in 10.0 mi West 8.1 mph 18.4 mph N/A   Clear
12:35 PM 56.7 °F - 29.8 °F 36% 29.87 in 10.0 mi West 11.5 mph 16.1 mph N/A   Clear
12:55 PM 57.9 °F - 31.1 °F 36% 29.86 in 10.0 mi West 10.4 mph - N/A   Clear
1:15 PM 58.1 °F - 30.9 °F 36% 29.86 in 10.0 mi West 10.4 mph 16.1 mph N/A   Clear
1:35 PM 58.8 °F - 31.3 °F 35% 29.86 in 10.0 mi WNW 12.7 mph 16.1 mph N/A   Clear
1:55 PM 60.3 °F - 30.0 °F 32% 29.86 in 10.0 mi West 9.2 mph - N/A   Clear
2:15 PM 61.0 °F - 30.9 °F 32% 29.86 in 10.0 mi West 11.5 mph - N/A   Clear
2:35 PM 62.2 °F - 23.4 °F 23% 29.85 in 10.0 mi West 11.5 mph 20.7 mph N/A   Clear
2:55 PM 62.8 °F - 24.8 °F 24% 29.83 in 10.0 mi WNW 8.1 mph - N/A   Clear
3:15 PM 63.5 °F - 26.6 °F 25% 29.84 in 10.0 mi WSW 8.1 mph 17.3 mph N/A   Clear
3:35 PM 64.2 °F - 24.6 °F 22% 29.84 in 10.0 mi WSW 10.4 mph 18.4 mph N/A   Clear
3:55 PM 64.8 °F - 23.5 °F 21% 29.84 in 10.0 mi West 12.7 mph 20.7 mph N/A   Clear
4:15 PM 65.1 °F - 22.3 °F 20% 29.84 in 10.0 mi West 6.9 mph - N/A   Clear
4:35 PM 65.3 °F - 19.2 °F 17% 29.84 in 10.0 mi West 8.1 mph 19.6 mph N/A   Clear
4:55 PM 65.5 °F - 17.8 °F 16% 29.84 in 10.0 mi West 6.9 mph 18.4 mph N/A   Clear
5:15 PM 65.3 °F - 14.9 °F 14% 29.84 in 10.0 mi West 13.8 mph 21.9 mph N/A   Clear
5:35 PM 64.8 °F - 16.0 °F 15% 29.85 in 10.0 mi West 10.4 mph 18.4 mph N/A   Clear
5:55 PM 63.9 °F - 13.8 °F 14% 29.85 in 10.0 mi WSW 16.1 mph 25.3 mph N/A   Clear
6:15 PM 62.8 °F - 8.6 °F 12% 29.86 in 10.0 mi WNW 13.8 mph 24.2 mph N/A   Clear
6:35 PM 61.9 °F - 11.1 °F 14% 29.86 in 10.0 mi WNW 9.2 mph - N/A   Clear
6:55 PM 61.2 °F - 12.4 °F 15% 29.88 in 10.0 mi West 5.8 mph - N/A   Clear
7:15 PM 59.5 °F - 15.1 °F 18% 29.89 in 10.0 mi West 3.5 mph - N/A   Clear
7:35 PM 58.3 °F - 16.2 °F 19% 29.90 in 10.0 mi West 4.6 mph - N/A   Clear
7:55 PM 58.1 °F - 15.3 °F 19% 29.91 in 10.0 mi West 8.1 mph - N/A   Clear
8:15 PM 56.5 °F - 16.5 °F 21% 29.91 in 10.0 mi West 4.6 mph - N/A   Clear
8:35 PM 56.3 °F - 16.7 °F 21% 29.93 in 10.0 mi WNW 6.9 mph - N/A   Clear
8:55 PM 55.6 °F - 17.1 °F 22% 29.94 in 10.0 mi WNW 3.5 mph - N/A   Clear
9:15 PM 54.5 °F - 15.4 °F 21% 29.96 in 10.0 mi WNW 4.6 mph - N/A   Clear
9:55 PM 52.7 °F - 10.2 °F 18% 29.97 in 10.0 mi WNW 8.1 mph - N/A   Clear
10:15 PM 52.5 °F - 5.7 °F 15% 29.99 in 10.0 mi WNW 6.9 mph - N/A   Clear
10:35 PM 51.6 °F - 3.6 °F 14% 29.99 in 10.0 mi WNW 5.8 mph - N/A   Clear
10:55 PM 50.9 °F - 2.1 °F 14% 30.00 in 10.0 mi WNW 5.8 mph - N/A   Clear
11:15 PM 50.4 °F - 0.3 °F 13% 30.01 in 10.0 mi WNW 4.6 mph - N/A   Clear
11:35 PM 50.0 °F - -0.9 °F 12% 30.02 in 10.0 mi WNW 9.2 mph - N/A   Clear
11:55 PM 49.5 °F - -1.8 °F 12% 30.02 in 10.0 mi WNW 6.9 mph 16.1 mph N/A   Clear